Temp
57 57 56 56 57 57 56 57 57 57 58 59 59 57 55 55 54 55 56 58 56 54 53 52 51 51 50 50 51 50 50 52 51 50 51 51 51 51 52 53 54 53 54
57 56 56 56 55 55 56 56 55 53 52 52 53 52 53 54 54 54 52 52 52 50 50 50 49 50 47 47 49 47 47 47 49 47 45 48 48 48 49 49 50 53 52
56 55 54 54 55 55 51 50 50 50 50 51 51 51 52 52 53 52 50 49 47 47 47 47 47 46 44 45 45 45 45 46 44 44 43 45 46 47 47 47 48 48 51
55 54 54 54 52 50 49 48 47 48 47 48 49 49 50 51 52 51 50 48 48 47 46 46 45 44 44 44 44 44 44 43 42 41 42 42 43 45 45 44 45 47 48
53 54 55 54 52 49 48 47 47 46 46 47 46 47 47 48 50 50 50 48 46 44 43 45 45 48 51 49 45 42 43 41 41 40 40 41 42 43 42 44 41 45 47
53 54 55 54 52 49 47 46 45 45 44 44 43 44 44 46 48 49 47 44 43 41 40 41 44 45 45 49 49 47 45 43 41 42 41 39 41 41 42 42 41 40 40
53 54 52 52 51 49 47 45 44 43 43 43 42 43 42 44 45 46 46 42 41 42 41 41 43 43 42 43 44 45 46 47 46 43 40 41 41 43 42 42 42 42 42
52 51 51 49 49 48 46 45 43 43 42 41 42 42 42 45 45 45 45 44 43 42 42 41 41 42 45 42 43 43 44 44 44 45 44 43 44 46 44 43 43 43 46
48 48 47 47 47 49 45 44 44 42 40 40 40 41 41 43 44 44 43 43 42 42 43 45 43 42 44 42 42 41 43 44 47 47 47 46 45 45 46 45 43 42 42
47 46 45 45 45 47 45 43 42 42 40 41 40 40 42 42 43 43 44 44 42 43 44 44 43 44 43 43 42 40 41 43 44 45 45 46 46 47 47 46 46 43 43
47 45 44 43 44 45 45 45 43 40 39 39 39 40 41 42 43 43 43 43 43 42 41 42 43 43 43 43 43 42 42 44 45 45 44 45 46 47 47 48 48 46 44
46 45 44 43 43 43 43 42 42 40 39 39 41 42 44 43 44 43 42 43 44 42 40 42 42 42 42 42 44 43 43 45 45 44 44 43 43 44 45 45 45 45 45
44 43 43 43 41 41 40 40 40 41 41 42 43 42 42 44 45 44 43 42 43 45 45 44 43 42 42 44 44 44 45 46 45 44 43 43 43 44 45 45 45 46 45
43 43 43 42 41 40 41 42 42 42 43 43 42 41 43 43 43 44 46 44 44 44 44 43 44 44 44 45 45 46 46 46 45 43 43 44 45 44 43 44 43 43 42
44 44 43 44 42 41 42 42 44 44 40 40 41 42 41 42 42 41 41 43 43 42 43 45 44 43 43 43 45 45 46 46 45 44 43 42 42 42 42 43 43 43 41
44 44 43 44 44 45 44 45 43 43 41 40 40 40 45 41 40 40 41 41 40 41 44 42 42 43 42 43 43 43 45 46 45 44 43 43 42 41 41 42 43 42 40
45 45 46 46 46 45 46 45 45 46 44 42 41 40 40 40 40 41 41 41 41 44 44 44 43 44 43 44 44 45 45 45 45 45 44 43 43 42 42 42 42 41 40
48 45 48 48 48 48 47 46 46 44 43 45 45 42 41 40 40 41 41 45 46 46 45 44 44 44 44 44 44 43 45 44 45 44 44 44 43 42 41 41 41 41 41
48 47 47 48 48 47 48 46 44 44 44 46 46 45 43 41 41 42 43 47 45 45 45 45 45 45 44 44 44 44 44 44 44 45 44 44 44 45 43 43 43 38 40
46 43 44 49 48 47 47 46 45 44 44 45 44 43 44 47 47 46 47 47 47 47 47 46 46 45 45 44 45 43 44 44 45 45 45 45 45 45 46 46 45 43 42
47 47 40 49 48 47 46 46 46 46 45 45 46 44 34 44 45 45 45 46 46 46 46 46 45 45 45 42 42 44 42 45 46 47 45 46 46 44 46 48 48 47 45
47 47 49 48 47 46 46 46 46 46 46 46 46 46 36 47 46 47 47 46 45 45 45 45 44 44 44 43 42 42 42 42 43 45 47 48 49 48 47 47 48 47 47
48 48 49 48 48 43 46 46 46 47 47 46 46 46 46 46 46 45 47 47 47 47 47 46 45 44 45 45 44 43 41 40 40 42 45 50 49 48 47 47 47 46 47
51 52 49 48 47 47 46 46 46 42 45 47 46 45 45 45 45 45 46 48 48 48 47 47 45 45 44 45 46 45 43 40 40 43 46 48 50 47 48 47 48 50 49
51 51 48 47 46 46 46 46 45 46 46 46 45 45 45 45 45 45 45 46 46 46 46 46 46 46 45 45 44 43 38 34 39 35 47 51 51 51 50 49 49 51 51
51 51 49 48 46 46 45 45 45 45 45 45 45 46 46 46 45 45 45 45 45 45 45 45 46 46 45 44 42 35 35 35 37 35 45 52 51 50 50 50 51 52 52
MSLP
1015.25 1014.80 1014.38 1013.80 1013.13 1012.37 1011.62 1010.86 1010.10 1009.28 1008.64 1008.08 1007.87 1007.99 1008.06 1007.86 1007.68 1007.57 1007.46 1007.41 1007.60 1007.98 1008.39 1008.62 1009.22 1009.54 1009.76 1009.94 1010.11 1010.21 1010.22 1010.43 1010.64 1011.36 1011.38 1011.57 1011.73 1011.32 1011.72 1011.67 1011.50 1011.39 1011.21
1015.44 1015.03 1014.61 1014.01 1013.24 1012.34 1011.60 1010.98 1010.42 1009.96 1009.63 1009.29 1009.03 1009.11 1009.03 1008.89 1008.56 1008.08 1008.14 1008.45 1008.67 1009.02 1009.36 1009.53 1010.09 1010.35 1010.77 1011.15 1011.13 1011.17 1011.33 1011.36 1011.45 1011.85 1012.29 1012.31 1012.02 1012.31 1012.42 1012.26 1012.00 1011.73 1011.55
1015.69 1015.40 1014.89 1014.09 1013.15 1012.26 1012.39 1012.01 1011.55 1011.17 1010.85 1010.49 1010.19 1009.98 1009.70 1009.43 1009.22 1009.32 1009.01 1009.41 1009.63 1009.60 1010.46 1010.80 1011.20 1011.41 1011.54 1011.76 1011.90 1012.14 1012.23 1012.07 1012.19 1012.67 1013.19 1013.09 1012.76 1012.91 1012.74 1012.55 1012.42 1012.16 1011.79
1015.85 1015.65 1015.07 1014.55 1014.18 1013.82 1013.59 1013.25 1012.76 1012.37 1012.06 1011.79 1011.44 1011.17 1010.84 1010.47 1010.13 1010.00 1009.73 1010.37 1010.67 1010.36 1010.93 1011.62 1011.85 1011.97 1012.30 1012.29 1012.69 1012.92 1012.81 1012.82 1012.97 1013.28 1013.63 1013.54 1013.33 1013.13 1013.15 1012.78 1012.30 1011.94 1011.41
1016.35 1015.89 1015.53 1015.25 1014.97 1014.59 1014.52 1014.29 1014.05 1013.56 1013.30 1013.01 1012.54 1012.39 1012.10 1011.60 1011.11 1010.93 1011.04 1011.32 1011.86 1011.96 1011.80 1012.07 1012.44 1012.40 1012.82 1012.82 1013.07 1013.29 1013.21 1013.37 1013.45 1013.59 1013.80 1013.78 1013.32 1013.17 1013.06 1012.83 1012.41 1011.78 1011.39
1017.01 1016.56 1016.05 1015.55 1015.63 1015.59 1015.46 1015.18 1014.87 1014.59 1014.31 1014.03 1013.71 1013.57 1013.31 1012.85 1012.41 1012.19 1012.26 1012.47 1012.66 1012.69 1013.19 1013.54 1013.57 1013.54 1013.51 1013.38 1013.10 1013.24 1013.15 1013.55 1013.46 1013.38 1013.63 1013.48 1013.34 1013.13 1012.85 1012.62 1012.31 1011.90 1011.50
1017.60 1017.22 1016.76 1016.31 1016.13 1016.28 1016.47 1016.26 1015.96 1015.80 1015.48 1015.17 1014.96 1014.65 1014.49 1014.10 1013.64 1013.51 1013.49 1013.59 1013.78 1014.10 1014.31 1014.19 1013.90 1013.99 1014.09 1013.94 1013.59 1013.55 1013.60 1013.33 1013.23 1013.34 1013.36 1013.35 1012.98 1012.89 1012.76 1012.46 1012.13 1011.81 1011.53
1018.11 1017.88 1017.40 1017.13 1016.91 1017.03 1017.14 1017.10 1016.95 1016.73 1016.55 1016.47 1016.18 1015.88 1015.50 1015.17 1014.86 1014.64 1014.48 1014.48 1014.59 1014.70 1014.73 1014.71 1014.72 1014.60 1014.05 1014.03 1014.09 1013.84 1013.60 1013.37 1013.17 1013.08 1013.07 1013.03 1012.80 1012.58 1012.47 1012.29 1011.94 1011.64 1011.40
1018.67 1018.61 1018.30 1018.00 1017.79 1017.65 1017.86 1017.83 1017.70 1017.62 1017.49 1017.37 1017.21 1016.78 1016.41 1016.09 1015.77 1015.46 1015.25 1015.20 1015.15 1015.11 1015.14 1014.97 1014.83 1014.64 1014.50 1014.39 1014.06 1013.75 1013.51 1013.15 1012.80 1012.77 1012.66 1012.42 1012.27 1012.24 1012.14 1012.02 1011.82 1011.62 1011.50
1019.44 1019.50 1019.23 1018.87 1018.63 1018.45 1018.56 1018.59 1018.58 1018.40 1018.31 1018.08 1017.76 1017.45 1017.05 1016.72 1016.43 1016.07 1015.70 1015.47 1015.34 1015.31 1015.29 1015.16 1014.97 1014.72 1014.51 1014.23 1014.18 1013.97 1013.40 1013.00 1012.70 1012.43 1012.31 1012.22 1012.12 1012.08 1011.98 1011.88 1011.81 1011.88 1011.76
1020.12 1020.12 1019.75 1019.62 1019.35 1019.23 1019.10 1019.09 1019.15 1019.16 1018.95 1018.62 1018.20 1017.86 1017.49 1017.16 1016.77 1016.44 1016.13 1015.82 1015.76 1015.69 1015.55 1015.29 1015.03 1014.81 1014.53 1014.33 1014.06 1013.72 1013.42 1013.01 1012.64 1012.35 1012.14 1012.05 1012.04 1012.07 1012.02 1011.96 1011.99 1011.92 1011.73
1020.59 1020.37 1020.29 1020.23 1020.05 1019.92 1019.78 1019.83 1019.77 1019.65 1019.27 1018.91 1018.55 1018.09 1017.74 1017.54 1017.27 1016.92 1016.56 1016.23 1016.03 1015.90 1015.84 1015.64 1015.28 1014.92 1014.60 1014.32 1013.95 1013.62 1013.25 1012.88 1012.66 1012.49 1012.39 1012.28 1012.22 1012.21 1012.28 1012.30 1012.25 1012.19 1012.09
1021.01 1021.00 1021.05 1020.97 1020.92 1020.76 1020.62 1020.57 1020.32 1019.97 1019.64 1019.30 1018.85 1018.43 1018.08 1017.80 1017.53 1017.23 1016.89 1016.64 1016.41 1016.13 1015.98 1015.69 1015.32 1014.94 1014.60 1014.27 1014.00 1013.63 1013.33 1013.12 1012.95 1012.84 1012.85 1012.82 1012.82 1012.76 1012.62 1012.55 1012.47 1012.45 1012.42
1021.52 1021.68 1021.73 1021.62 1021.60 1021.43 1021.20 1021.04 1020.74 1020.51 1020.11 1019.73 1019.36 1018.94 1018.54 1018.15 1017.91 1017.62 1017.27 1016.95 1016.63 1016.31 1015.99 1015.69 1015.45 1015.14 1014.81 1014.55 1014.19 1013.96 1013.71 1013.50 1013.38 1013.29 1013.25 1013.24 1013.13 1012.96 1012.88 1012.88 1012.88 1012.82 1012.75
1022.04 1022.08 1022.14 1022.13 1022.08 1021.96 1021.75 1021.49 1021.13 1021.03 1020.85 1020.44 1020.01 1019.55 1019.20 1018.74 1018.47 1018.07 1017.67 1017.31 1017.01 1016.68 1016.16 1015.83 1015.61 1015.43 1015.11 1014.86 1014.58 1014.37 1014.16 1013.98 1013.84 1013.79 1013.68 1013.58 1013.47 1013.40 1013.44 1013.37 1013.27 1013.16 1013.10
1022.31 1022.41 1022.47 1022.46 1022.41 1022.25 1022.00 1021.67 1021.40 1021.21 1020.97 1020.67 1020.35 1020.03 1019.54 1019.14 1018.67 1018.28 1017.87 1017.57 1017.26 1016.90 1016.64 1016.59 1016.34 1016.06 1015.77 1015.52 1015.23 1014.96 1014.70 1014.44 1014.31 1014.16 1014.05 1014.03 1014.01 1013.99 1013.92 1013.80 1013.66 1013.62 1013.63
1022.43 1022.61 1022.67 1022.60 1022.56 1022.39 1022.20 1022.05 1021.80 1021.46 1021.11 1020.86 1020.62 1020.23 1019.91 1019.56 1019.12 1018.62 1018.28 1017.96 1017.65 1017.31 1017.20 1017.06 1016.89 1016.62 1016.36 1016.12 1015.83 1015.56 1015.30 1015.06 1014.80 1014.69 1014.61 1014.52 1014.46 1014.37 1014.21 1014.17 1014.14 1014.10 1014.09
1022.57 1022.77 1022.78 1022.68 1022.57 1022.51 1022.53 1022.46 1022.41 1022.24 1021.80 1021.41 1021.07 1020.74 1020.28 1020.07 1019.66 1019.29 1018.87 1018.42 1018.08 1017.85 1017.64 1017.50 1017.31 1017.09 1016.77 1016.48 1016.19 1016.02 1015.78 1015.54 1015.36 1015.22 1015.10 1014.99 1014.87 1014.77 1014.66 1014.61 1014.56 1014.50 1014.43
1022.93 1023.12 1023.18 1023.07 1023.01 1022.97 1022.95 1022.95 1022.89 1022.69 1022.38 1022.06 1021.67 1021.26 1020.86 1020.28 1020.17 1019.67 1019.44 1019.18 1018.90 1018.66 1018.38 1018.13 1017.93 1017.61 1017.24 1016.87 1016.60 1016.28 1016.10 1015.92 1015.77 1015.63 1015.49 1015.32 1015.20 1015.02 1014.98 1014.97 1014.94 1014.89 1014.81
1023.51 1023.62 1023.56 1023.43 1023.40 1023.35 1023.32 1023.29 1023.22 1023.04 1022.81 1022.59 1022.40 1022.26 1021.75 1021.00 1020.72 1020.50 1020.18 1019.87 1019.61 1019.36 1019.09 1018.78 1018.51 1018.16 1017.83 1017.50 1017.11 1016.69 1016.36 1016.01 1015.85 1015.70 1015.61 1015.46 1015.36 1015.24 1015.16 1015.16 1015.17 1015.19 1015.25
1024.04 1024.10 1024.00 1023.90 1023.89 1023.90 1023.87 1023.79 1023.67 1023.42 1023.15 1022.94 1022.84 1022.73 1022.28 1021.94 1021.66 1021.30 1021.00 1020.67 1020.42 1020.13 1019.83 1019.51 1019.16 1018.78 1018.39 1018.01 1017.64 1017.22 1016.83 1016.41 1016.02 1015.74 1015.57 1015.43 1015.35 1015.32 1015.30 1015.24 1015.24 1015.36 1015.53
1024.55 1024.55 1024.43 1024.48 1024.45 1024.39 1024.35 1024.20 1023.96 1023.71 1023.49 1023.27 1023.11 1022.90 1022.58 1022.31 1022.13 1021.89 1021.63 1021.40 1021.17 1020.90 1020.59 1020.24 1019.84 1019.48 1019.14 1018.70 1018.17 1017.62 1017.20 1016.81 1016.42 1016.08 1015.70 1015.41 1015.23 1015.24 1015.26 1015.28 1015.39 1015.56 1015.73
1025.00 1024.97 1024.93 1024.95 1024.92 1024.92 1024.79 1024.58 1024.33 1024.05 1023.87 1023.67 1023.53 1023.36 1023.15 1022.99 1022.80 1022.55 1022.28 1021.97 1021.62 1021.25 1020.96 1020.63 1020.32 1019.85 1019.35 1018.93 1018.51 1018.08 1017.64 1017.19 1016.81 1016.35 1015.92 1015.44 1015.24 1015.20 1015.29 1015.41 1015.57 1015.72 1015.89
1025.25 1025.22 1025.38 1025.39 1025.38 1025.33 1025.19 1025.07 1024.88 1024.65 1024.40 1024.24 1024.11 1023.98 1023.81 1023.62 1023.36 1023.11 1022.81 1022.40 1022.00 1021.70 1021.41 1021.09 1020.75 1020.36 1019.83 1019.21 1018.65 1018.17 1017.84 1017.51 1016.82 1016.14 1015.73 1015.38 1015.21 1015.26 1015.43 1015.63 1015.77 1015.92 1016.09
1025.63 1025.61 1025.74 1025.81 1025.83 1025.82 1025.69 1025.57 1025.40 1025.17 1024.99 1024.85 1024.75 1024.60 1024.43 1024.19 1023.89 1023.61 1023.30 1022.90 1022.57 1022.18 1021.89 1021.58 1021.17 1020.69 1020.26 1019.72 1019.19 1018.53 1017.92 1017.32 1016.71 1016.18 1015.40 1015.01 1015.09 1015.25 1015.51 1015.77 1015.98 1016.09 1016.20
1026.01 1026.04 1026.11 1026.17 1026.17 1026.19 1026.16 1026.09 1025.92 1025.74 1025.58 1025.42 1025.26 1025.13 1024.97 1024.75 1024.50 1024.18 1023.80 1023.47 1023.16 1022.75 1022.36 1021.98 1021.55 1021.04 1020.54 1020.02 1019.57 1018.99 1018.23 1017.38 1016.72 1016.09 1015.45 1015.07 1015.13 1015.35 1015.61 1015.85 1016.03 1016.12 1016.28
Wind_Speed
10 10 9 11 11 10 10 10 11 11 10 6 3 6 7 6 6 5 4 1 5 7 8 10 10 8 7 6 6 5 6 3 2 2 1 4 4 6 6 6 6 6 6
8 10 11 12 14 12 12 14 13 11 10 10 8 8 7 8 7 8 10 10 10 10 10 11 10 8 9 8 6 7 6 5 3 1 3 2 3 3 3 5 5 5 6
9 10 12 14 16 13 12 11 13 13 12 12 11 9 8 8 8 9 10 12 12 13 11 10 10 8 8 6 6 4 4 4 4 3 2 2 1 2 3 3 4 4 5
9 11 14 14 13 12 12 13 14 13 14 14 13 12 12 9 7 7 11 10 9 12 12 10 8 7 6 5 5 3 4 4 4 3 2 2 1 2 2 2 5 3 5
11 13 12 11 9 10 11 11 11 13 12 12 14 14 14 11 7 7 8 9 9 10 11 10 8 8 8 5 3 3 4 3 3 3 3 0 1 2 2 3 2 5 2
13 13 10 9 9 10 9 10 10 11 11 12 13 12 13 9 19 18 13 10 11 11 8 7 5 9 9 9 10 7 5 4 3 2 1 1 2 1 1 3 2 2 3
11 11 11 12 9 9 8 9 11 11 10 13 12 12 12 11 20 19 18 9 8 9 8 7 7 6 6 5 7 8 6 4 2 1 2 2 1 1 2 3 2 2 2
10 11 11 11 10 8 8 10 10 9 11 10 11 11 10 11 16 15 15 9 8 8 8 7 5 5 8 7 5 4 3 3 2 2 4 5 5 4 4 3 3 3 3
11 11 11 11 9 7 9 9 8 8 9 9 8 10 10 11 16 12 8 6 6 6 5 4 7 6 8 7 5 5 4 2 3 5 4 3 2 4 5 2 2 3 2
11 9 9 9 9 10 9 8 7 8 8 7 8 9 12 9 15 14 8 4 6 5 6 7 11 8 8 7 4 4 5 5 5 4 2 3 3 2 3 3 2 2 2
7 7 10 9 8 7 6 6 8 7 7 6 7 7 9 10 10 14 13 6 6 5 5 5 6 11 9 7 5 4 3 5 5 4 3 4 3 3 3 3 4 2 2
7 8 9 9 8 7 8 7 8 6 5 6 7 6 6 6 12 12 13 12 9 6 5 4 5 8 8 7 5 7 8 5 3 4 4 4 3 4 4 4 5 4 4
6 9 9 9 9 8 8 7 5 7 6 7 6 6 6 6 7 11 12 11 10 5 4 5 8 9 8 6 11 11 8 4 4 4 5 5 4 3 3 2 4 4 6
7 7 6 8 8 7 5 5 6 7 6 6 6 7 6 6 6 6 6 6 8 6 6 5 5 7 8 6 6 7 5 5 5 4 4 3 3 4 5 3 3 2 4
5 5 5 5 5 5 5 4 6 5 4 4 5 4 5 6 5 6 5 4 4 5 4 5 6 5 6 6 5 6 6 5 6 5 5 5 5 4 4 3 4 4 4
4 3 3 3 3 3 4 4 3 5 6 8 7 5 4 7 10 11 10 10 10 10 4 5 6 6 6 6 6 5 5 7 6 5 5 4 4 4 4 4 4 4 3
4 3 3 3 2 2 4 5 6 6 8 8 11 11 11 8 13 13 12 10 11 7 5 6 5 5 5 5 5 5 6 5 5 4 4 4 4 5 4 5 4 3 4
5 5 2 2 2 3 5 5 5 6 6 7 7 8 12 13 12 13 12 8 7 7 4 4 5 5 4 4 4 4 4 4 4 4 5 5 4 4 4 4 4 4 5
5 3 3 3 4 4 5 5 5 5 6 6 6 8 11 13 8 10 10 6 6 6 6 6 6 6 5 5 4 3 3 3 2 2 3 3 3 3 3 3 3 5 4
5 7 5 3 4 4 5 5 5 5 5 6 5 5 7 7 8 8 7 6 7 7 7 7 7 7 6 6 6 5 4 3 3 2 2 2 2 3 4 5 5 5 4
4 4 4 4 5 4 4 4 5 5 5 5 5 4 5 3 5 6 6 7 7 7 7 7 7 7 7 6 6 6 5 5 4 4 2 1 1 1 0 3 4 4 5
4 4 4 5 4 4 4 3 4 4 5 6 5 6 7 6 5 6 7 6 6 6 5 6 6 6 7 7 7 6 6 5 5 4 4 3 1 1 1 2 3 4 5
5 4 5 4 4 4 3 3 4 5 5 6 6 6 6 6 6 6 6 6 6 7 6 7 7 8 7 7 7 7 6 7 5 5 4 3 1 2 2 3 4 5 5
4 4 4 4 3 3 3 4 4 5 5 6 6 6 6 5 6 6 6 6 6 7 7 7 7 10 9 9 9 9 6 7 6 5 4 3 1 3 4 4 5 7 6
3 3 4 3 3 3 4 4 4 4 5 5 5 4 5 5 6 6 6 6 6 7 8 8 8 11 12 14 14 16 13 11 8 7 4 2 3 5 5 4 5 6 7
4 3 3 3 4 4 3 3 4 4 4 4 4 5 5 6 5 6 6 7 7 7 9 7 10 14 15 12 14 15 13 14 12 10 5 2 3 3 3 5 7 5 6
Wind_Direction
348 343 342 337 327 318 320 320 318 318 313 334 333 25 31 39 22 25 359 334 96 91 77 77 70 68 72 66 63 57 58 40 101 117 75 26 10 8 1 0 7 358 347
349 352 356 347 339 332 328 349 355 20 21 33 55 59 41 27 20 65 67 61 58 62 71 81 76 71 65 56 53 53 48 38 41 37 18 5 28 15 348 337 351 346 340
355 359 355 357 348 359 32 25 27 24 27 31 35 37 39 45 47 43 62 63 76 78 61 63 66 68 65 63 59 62 62 59 56 54 360 342 357 10 339 348 348 327 314
7 8 6 10 27 33 35 37 39 33 30 26 25 21 16 14 45 80 84 90 84 75 80 70 66 59 63 71 59 59 75 77 68 71 31 1 339 1 318 311 323 307 320
18 13 11 26 32 54 40 39 39 40 33 28 31 20 16 7 2 46 62 67 71 75 60 59 43 52 54 101 122 120 111 94 91 85 70 268 293 321 299 317 292 317 327
16 6 357 9 50 40 39 50 50 44 39 35 31 25 21 21 39 53 61 65 59 56 55 50 47 50 44 51 71 138 117 122 121 96 183 266 250 296 314 315 286 321 339
19 10 11 16 42 51 41 38 37 33 33 35 31 28 23 27 43 53 59 58 62 61 51 42 48 33 43 45 47 54 47 67 138 163 202 240 294 278 296 298 303 286 277
24 9 12 15 18 69 46 44 38 32 32 29 29 29 34 38 45 51 55 55 59 57 50 52 48 39 43 46 48 50 20 331 281 246 241 251 238 273 267 262 284 293 308
21 11 14 18 21 65 58 43 34 34 34 32 28 26 33 32 32 41 49 51 53 53 34 53 51 39 43 50 45 22 333 313 313 266 259 241 218 227 247 257 18 13 353
22 14 21 31 28 53 58 48 38 38 35 27 29 24 27 29 22 21 24 29 42 42 46 30 22 29 23 26 18 339 354 354 343 14 51 86 107 85 50 22 45 30 351
38 29 35 28 33 35 45 48 50 42 35 22 23 19 27 19 18 21 20 37 49 48 38 13 8 3 5 1 352 346 330 313 358 22 30 38 53 74 64 41 38 23 341
41 41 36 32 34 36 48 39 43 31 25 19 17 22 19 16 21 20 24 28 45 49 30 352 342 346 354 350 3 15 18 16 27 34 35 33 33 46 56 56 49 44 33
59 50 41 45 39 44 51 39 32 25 20 17 15 17 12 14 22 17 26 24 28 31 16 5 5 356 356 14 15 23 16 24 27 43 47 43 40 35 47 57 54 45 43
69 56 48 55 48 40 41 36 28 21 14 13 10 8 3 9 13 7 16 10 13 19 4 354 4 24 33 17 20 21 26 31 35 35 41 37 29 34 40 27 37 15 47
70 66 56 49 51 41 41 25 22 30 7 359 1 349 357 8 352 355 15 16 8 355 351 19 21 11 18 17 21 27 25 30 36 34 40 36 35 36 39 20 30 40 59
100 77 64 60 58 36 24 13 7 10 6 24 15 13 16 17 15 16 16 22 22 11 26 22 28 25 22 16 15 13 21 31 32 33 35 34 40 41 38 36 38 44 48
138 121 93 69 53 19 24 23 17 353 347 2 14 21 26 13 18 16 15 14 27 26 35 32 30 20 15 18 18 28 35 17 21 29 34 33 35 40 34 44 39 45 55
129 139 89 41 19 42 45 37 33 25 8 7 356 3 11 11 10 22 11 16 25 25 21 18 11 11 2 7 12 13 16 12 24 29 33 43 48 46 42 42 40 47 53
108 93 80 58 55 56 55 44 35 30 21 19 8 11 353 338 7 20 20 35 17 19 14 17 11 10 357 355 356 346 357 0 352 35 23 33 28 55 52 52 59 48 53
80 79 72 54 57 53 46 41 33 27 26 24 24 4 346 8 16 14 17 20 24 21 16 18 12 10 5 359 354 348 342 332 328 20 25 46 36 37 70 69 62 70 60
89 73 59 54 53 50 42 29 21 24 21 25 28 15 330 18 10 13 17 21 22 18 15 15 12 11 7 359 356 360 354 351 350 349 318 282 139 108 358 60 62 82 85
87 77 58 57 54 57 43 9 18 26 28 28 17 13 4 32 24 24 28 23 14 14 9 6 7 3 359 357 352 350 351 350 342 347 342 344 29 135 101 102 91 96 97
89 78 63 56 59 47 29 9 10 33 37 35 31 26 23 26 24 23 21 16 13 14 9 11 7 1 358 356 354 351 345 339 321 313 315 346 48 102 103 104 93 95 112
75 85 68 52 41 27 29 25 20 31 34 37 35 27 22 19 24 21 15 10 12 11 8 8 3 2 352 356 356 355 351 340 311 306 301 299 70 115 108 102 105 109 112
80 76 60 52 41 29 28 25 21 27 34 32 28 24 13 15 17 12 7 5 4 6 6 3 0 356 359 357 1 356 343 338 337 318 315 326 130 130 122 116 126 129 134
76 77 50 53 46 40 40 29 25 22 22 20 23 27 23 21 13 8 7 9 5 5 5 3 1 1 2 357 352 341 341 344 348 337 334 41 108 119 123 128 136 137 149